Craig, CO

3:07 AM MDT on October 18, 2019 (GMT -0600)
Craig-Moffat

Weather History for KCAG - September, 2019

Change the Weather History Date:

Friday, September 20, 2019

  Actual Average Record
Temperature  
Mean Temperature 56 °F 54 °F  
Max Temperature 75 °F 73 °F 84 °F (2010)
Min Temperature 36 °F 35 °F 28 °F (2003)
Degree Days  
Heating Degree Days 9 11  
Month to date heating degree days 86 152  
Since 1 July heating degree days 103 229  
Cooling Degree Days 0 0  
Month to date cooling degree days 24 0  
Year to date cooling degree days 246 140  
Growing Degree Days 6 (Base 50)    
Moisture  
Dew Point 31 °F    
Average Humidity 42    
Maximum Humidity 82    
Minimum Humidity 17    
Precipitation  
Precipitation T in 0.07 in 0.72 in (1997)
Month to date precipitation 0.66 1.26  
Year to date precipitation 11.67 11.32  
Sea Level Pressure  
Sea Level Pressure 29.77 in    
Wind  
Wind Speed 8 mph ()    
Max Wind Speed 32 mph    
Max Gust Speed 45 mph    
Visibility 10.0 miles    
Events      
T = Trace of Precipitation, MM = Missing Value Source: Averaged Metar Reports

Daily Weather History Graph

Daily Weather History Graph

Search for Another Location

Airport or City:

Astronomy

Sep. 20, 2019 Rise Set
Actual Time 6:55 AM MDT 7:10 PM MDT
Civil Twilight 6:28 AM MDT 7:38 PM MDT
Nautical Twilight 5:56 AM MDT 8:09 PM MDT
Astronomical Twilight 5:23 AM MDT 8:42 PM MDT
Moon 11:01 PM MDT (9/20) 1:04 PM MDT (9/20)
Length of Visible Light 13h 09m
Length of Day
12h 15m
Waning Gibbous, 64% of the Moon is Illuminated
Sep 20
Waning Gibbous
Sep 21
Last Quarter
Sep 28
New
Oct 5
First Quarter
Oct 13
Full

Hourly Weather History & Observations

Time (MDT) Temp. Windchill Dew Point Humidity Pressure Visibility Wind Dir Wind Speed Gust Speed Precip Events Conditions
12:53 AM 46.0 °F - 37.0 °F 71% 29.70 in 10.0 mi Calm Calm - N/A   Clear
1:53 AM 43.0 °F - 37.0 °F 80% 29.72 in 10.0 mi Calm Calm - N/A   Clear
2:53 AM 46.9 °F - 37.0 °F 68% 29.69 in 10.0 mi ESE 4.6 mph - N/A   Clear
3:53 AM 46.0 °F 43.1 °F 37.0 °F 71% 29.70 in 10.0 mi SE 5.8 mph - N/A   Clear
4:53 AM 46.9 °F - 37.0 °F 68% 29.70 in 10.0 mi ESE 5.8 mph - N/A   Clear
5:53 AM 43.0 °F 39.5 °F 36.0 °F 76% 29.72 in 10.0 mi ESE 5.8 mph - N/A   Clear
6:53 AM 48.9 °F - 36.0 °F 61% 29.73 in 10.0 mi East 3.5 mph - N/A   Clear
7:53 AM 48.9 °F - 39.0 °F 69% 29.77 in 10.0 mi Calm Calm - N/A   Clear
8:53 AM 62.1 °F - 39.9 °F 44% 29.73 in 10.0 mi Variable 3.5 mph - N/A   Clear
9:36 AM 70.0 °F - 34.0 °F 27% 29.90 in 10.0 mi SW 20.7 mph 31.1 mph N/A   Clear
9:53 AM 71.1 °F - 34.0 °F 26% 29.71 in 10.0 mi SSW 18.4 mph 27.6 mph N/A   Partly Cloudy
10:53 AM 73.0 °F - 30.9 °F 21% 29.70 in 10.0 mi SSW 24.2 mph 38.0 mph N/A   Clear
11:53 AM 73.9 °F - 32.0 °F 21% 29.69 in 10.0 mi South 18.4 mph 38.0 mph N/A   Partly Cloudy
12:53 PM 71.1 °F - 28.9 °F 21% 29.72 in 10.0 mi WSW 20.7 mph 41.4 mph N/A   Scattered Clouds
1:53 PM 73.0 °F - 33.1 °F 23% 29.74 in 10.0 mi SW 27.6 mph 40.3 mph 0.00 in   Scattered Clouds
2:53 PM 73.0 °F - 28.9 °F 20% 29.71 in 10.0 mi West 20.7 mph 29.9 mph N/A   Mostly Cloudy
3:53 PM 70.0 °F - 26.1 °F 19% 29.73 in 10.0 mi WSW 18.4 mph 33.4 mph N/A   Overcast
4:53 PM 68.0 °F - 21.9 °F 17% 29.75 in 10.0 mi WSW 17.3 mph 28.8 mph N/A   Overcast
5:53 PM 64.0 °F - 23.0 °F 21% 29.82 in 10.0 mi West 15.0 mph 24.2 mph N/A   Overcast
6:53 PM 62.1 °F - 23.0 °F 22% 29.83 in 10.0 mi West 13.8 mph - N/A   Mostly Cloudy
7:53 PM 59.0 °F - 21.0 °F 23% 29.89 in 10.0 mi WSW 8.1 mph - N/A   Overcast
8:53 PM 54.0 °F - 24.1 °F 31% 29.88 in 10.0 mi WNW 9.2 mph - N/A   Partly Cloudy
9:53 PM 48.9 °F - 28.9 °F 46% 29.91 in 10.0 mi SW 5.8 mph - N/A   Clear
10:53 PM 50.0 °F - 27.0 °F 41% 29.91 in 10.0 mi NNW 8.1 mph 20.7 mph N/A   Clear
11:53 PM 43.0 °F 41.3 °F 28.0 °F 56% 29.96 in 10.0 mi Variable 3.5 mph - N/A   Clear